Showing default

COSMOS 2604, 67678

Orbit data source: Space-Track

COSMOS 2604, 67678 is a payload satellite owned by VVKO VKS (CIS) in SSO that was launched on Thu, 05 Feb 2026 UTC via a SOYUZ-2-1B launch vehicle from the Plesetsk Missile And Space Complex (PKMTR). Payload-class satellites include a variety of spacecraft equipped with specific instruments for various scientific and technological missions. These include communications satellites like Starlink; space stations such as the ISS; scientific satellites like the Hubble; Earth observation satellites from companies like Planet Labs, Umbra, and HawkEye 360; GPS; miniature CubeSats for education and research; and military/defense satellites.

Loading next visibility...
Identifier
67678, 2026-023E
Orbit
SSO
Country
Flag of CISCIS
Related business
Manufacturer
Unknown (RU)
Mission
Operational Defense Imaging
Bus & Motor
UNK, Unknown motor
Mass
~500 kg wet, ~500 kg dry
Launch date (UTC)
2026-02-05 (4 months ago)
Launch vehicle
SOYUZ-2-1B
Launch site
Plesetsk Missile And Space Complex (PKMTR)
Object type
Payload
Rocket body
Debris
Shape & HBR
Cyl + 2 Pan, 0.5 m
Radar Cross Section
3.727 m², Medium (>0.1 m² and < 1m²)

Expand to show TLE details & history
Last TLE update: 23 hours ago

TLE from 23 hours ago
0 COSMOS 2604
1 67678U 26023E   26170.92963279  .00009693  00000-0  38397-3 0  9990
2 67678  96.6204 232.0628 0019665 121.2625 239.0545 15.25403467 20425
Epoch: 2026-06-19T22:18Z
TLE epoch observation values (Epoch: 2026-06-19T22:18:40.273Z)
Latitude
0.00004°
Longitude
-10.75656°
Altitude
499.659 km
Speed
7.611 km/s
True Right ascension
15h 28m 15s
True Declination
0° 00' 00"
Sunlit
Object was in full shadow at epoch
Visualization orbit readout
Latitude
Unknown
Longitude
Unknown
Altitude
Unknown
Speed
Unknown
Apparent Right ascension
Unknown
Apparent Declination
Unknown
Sunlit
N/A
Visualization observer readout
Local Sidereal Time
08:42:08
Azimuth
Unknown
Elevation
Unknown
Doppler factor
Unknown
Orbital elements
Apogee altitude
500 km
Perigee altitude
473.002 km
Semi-major axis
6,864.638 km
Eccentricity
0.00197
Inclination
96.6204°
RAAN
232.0628°
Arg. of periapsis
121.2625°
True anomaly
238.86148°
Mean anomaly
239.0545°
Eccentric anomaly
238.95796°
Mean motion
3.81607 °/min
Orbital period
94.34 mins
BSTAR
0.00038397
Loading maneuver chart data...
Computing Atmospheric mass density...
Loading historical data...
Loading historical data...
Loading historical data...
Loading historical data...
Loading historical data...
Loading historical data...
Loading historical data...

Documentation

Showing up to 5 results
|